Simultaneous Nadir Overpasses (SNOs) Predictions

Prediction of SNOs between NPP and TERRA Satellite Orbit:

Table of predicted SNOs for the next 14.0 days since TLE Epoch: 12/14/2012
Index Date (NPP) Time (NPP) Lat,Lon (NPP) SZA (NPP ) Date (TERRA) Time (TERRA) Lat,Lon (TERRA) SZA (TERRA ) Distance(km) Time Diff (sec)
1 12/14/2012 20:01:46 68.20,-122.13 91.35 12/14/2012 20:02:35 68.18,-122.16 91.32 2.79 49
2 12/14/2012 20:52:27 -68.07, 45.35 88.78 12/14/2012 20:52:05 -68.07, 45.34 88.79 1.00 22
3 12/14/2012 21:42:55 67.07,-146.13 90.22 12/14/2012 21:41:47 67.11,-148.09 90.27 84.81 68
4 12/17/2012 11:28:14 -69.24,-175.05 87.49 12/17/2012 11:29:21 -69.15,-172.71 87.59 93.00 67
5 12/17/2012 12:18:40 68.14, -6.28 91.40 12/17/2012 12:19:04 68.15, -6.31 91.41 1.63 24
6 12/17/2012 13:09:21 -68.01, 161.20 88.73 12/17/2012 13:08:34 -68.04, 161.20 88.70 3.30 47
7 12/20/2012 03:44:53 -68.37, -58.11 88.32 12/20/2012 03:46:04 -68.34, -57.84 88.35 11.34 71
8 12/20/2012 04:35:34 68.12, 109.51 91.44 12/20/2012 04:35:32 68.12, 109.54 91.43 1.46 2
9 12/20/2012 05:26:15 -68.00, -83.01 88.69 12/20/2012 05:25:02 -68.01, -82.95 88.68 2.78 73
10 12/22/2012 20:01:44 -68.18, 57.90 88.51 12/22/2012 20:02:34 -68.19, 57.86 88.50 1.98 50
11 12/22/2012 20:52:28 68.05,-134.62 91.36 12/22/2012 20:52:01 68.07,-134.63 91.39 2.82 27
12 12/22/2012 21:42:54 -67.11, 33.83 89.59 12/22/2012 21:41:46 -67.13, 31.94 89.55 82.10 68
13 12/25/2012 11:28:12 69.03, 5.23
